Tracking 18843 objects as of 21-November-2017
HD Live streaming from Space Station
objects crossing your sky now

COSMOS 1285

Track COSMOS 1285 now!
COSMOS 1285 is classified as:


NORAD ID: 12627
Int'l Code: 1981-071A
Perigee: 5,702.9 km
Apogee: 35,123.9 km
Inclination: 68.7 °
Period: 727.1 minutes
Semi major axis: 26784 km
RCS: 7.7618 m2 (large)
Launch date: August 4, 1981
Source: Commonwealth of Independent States (former USSR) (CIS)
Launch site: PLESETSK MISSILE AND SPACE COMPLEX (PKMTR)
aabbcc
Your satellite tracking list
Your tracking list is empty




NASA's NSSDC Master Catalog

Two Line Element Set (TLE):
1 12627U 81071A   17324.09941484 +.00000138 +00000-0 +00000-0 0  9993
2 12627 068.7417 279.9641 5492177 071.6721 170.8594 01.98052482184488
Source of the keplerian elements: AFSPC